Blackwell, OK

7:50 AM CDT on October 22, 2017 (GMT -0500)
Blackwell

Weather History for KBKN - October, 2013

Change the Weather History Date:

Saturday, October 12, 2013

  Actual Average (KPNC) Record (KPNC)
Temperature  
Mean Temperature 62 °F -  
Max Temperature 75 °F 79 °F 93 °F (1975)
Min Temperature 50 °F 53 °F 38 °F (1965)
Degree Days  
Heating Degree Days 2    
Growing Degree Days 12 (Base 50)    
Moisture  
Dew Point 41 °F    
Average Humidity 48    
Maximum Humidity 71    
Minimum Humidity 25    
Precipitation  
Precipitation 0.00 in - - ()
Sea Level Pressure  
Sea Level Pressure 30.07 in    
Wind  
Wind Speed 13 mph (NE)    
Max Wind Speed 22 mph    
Max Gust Speed 31 mph    
Visibility 10 miles    
Events      
Averages and records for this station are not official NWS values.
T = Trace of Precipitation, MM = Missing Value Source: NWS Daily Summary

Daily Weather History Graph

Daily Weather History Graph

Search for Another Location

Airport or City:

Trip Planner

Search our weather history database for the weather conditions in past years. The results will help you decide how hot, cold, wet, or windy it might be!

Date:

Astronomy

Oct. 12, 2013 Rise Set
Actual Time 7:34 AM CDT 6:56 PM CDT
Civil Twilight 7:08 AM CDT 7:22 PM CDT
Nautical Twilight 6:38 AM CDT 7:52 PM CDT
Astronomical Twilight 6:08 AM CDT 8:22 PM CDT
Moon 2:58 PM CDT (10/12) 12:48 AM CDT (10/12)
Length of Visible Light 12h 14m
Length of Day
11h 22m
First Quarter, 59% of the Moon is Illuminated
Oct 12
First Quarter
Oct 18
Full
Oct 26
Last Quarter
Nov 3
New
Nov 9
First Quarter

Hourly Weather History & Observations

Time (CDT) Temp. Dew Point Humidity Pressure Visibility Wind Dir Wind Speed Gust Speed Precip Events Conditions
12:15 AM 62.6 °F 39.2 °F 42% 29.87 in 10.0 mi NNW 12.7 mph - N/A   Scattered Clouds
12:35 AM 62.6 °F 39.2 °F 42% 29.88 in 10.0 mi North 18.4 mph - N/A   Mostly Cloudy
12:55 AM 64.4 °F 41.0 °F 42% 29.89 in 10.0 mi North 18.4 mph 23.0 mph N/A   Overcast
1:15 AM 62.6 °F 42.8 °F 48% 29.89 in 10.0 mi NNE 15.0 mph 20.7 mph N/A   Mostly Cloudy
1:35 AM 60.8 °F 42.8 °F 52% 29.90 in 10.0 mi North 13.8 mph - N/A   Mostly Cloudy
1:55 AM 59.0 °F 44.6 °F 59% 29.90 in 10.0 mi North 13.8 mph - N/A   Mostly Cloudy
2:15 AM 59.0 °F 44.6 °F 59% 29.91 in 10.0 mi NNE 12.7 mph 18.4 mph N/A   Mostly Cloudy
2:35 AM 59.0 °F 44.6 °F 59% 29.93 in 10.0 mi NNE 12.7 mph - N/A   Mostly Cloudy
2:55 AM 59.0 °F 44.6 °F 59% 29.93 in 10.0 mi NNE 12.7 mph - N/A   Mostly Cloudy
3:15 AM 59.0 °F 44.6 °F 59% 29.94 in 10.0 mi NNE 13.8 mph - N/A   Mostly Cloudy
3:35 AM 57.2 °F 44.6 °F 63% 29.94 in 10.0 mi NNE 10.4 mph - N/A   Mostly Cloudy
3:55 AM 55.4 °F 44.6 °F 67% 29.95 in 10.0 mi NNE 10.4 mph - N/A   Mostly Cloudy
4:15 AM 55.4 °F 44.6 °F 67% 29.96 in 10.0 mi NNE 11.5 mph - N/A   Mostly Cloudy
4:35 AM 55.4 °F 44.6 °F 67% 29.97 in 10.0 mi NNE 11.5 mph - N/A   Mostly Cloudy
4:55 AM 55.4 °F 44.6 °F 67% 29.98 in 10.0 mi NNE 11.5 mph - N/A   Overcast
5:15 AM 55.4 °F 44.6 °F 67% 29.99 in 10.0 mi NNE 11.5 mph - N/A   Overcast
5:35 AM 55.4 °F 44.6 °F 67% 30.00 in 10.0 mi NNE 9.2 mph - N/A   Overcast
5:55 AM 53.6 °F 42.8 °F 67% 30.01 in 10.0 mi NNE 9.2 mph - N/A   Overcast
6:15 AM 53.6 °F 42.8 °F 67% 30.02 in 10.0 mi NNE 10.4 mph - N/A   Overcast
6:35 AM 53.6 °F 42.8 °F 67% 30.02 in 10.0 mi NNE 11.5 mph - N/A   Overcast
6:55 AM 53.6 °F 41.0 °F 62% 30.03 in 10.0 mi NNE 9.2 mph - N/A   Overcast
7:15 AM 51.8 °F 41.0 °F 67% 30.04 in 10.0 mi NNE 9.2 mph - N/A   Mostly Cloudy
7:35 AM 50.0 °F 41.0 °F 71% 30.05 in 10.0 mi NNE 8.1 mph - N/A   Partly Cloudy
7:55 AM 51.8 °F 41.0 °F 67% 30.06 in 10.0 mi NNE 9.2 mph - N/A   Clear
8:15 AM 53.6 °F 41.0 °F 62% 30.08 in 10.0 mi NE 6.9 mph - N/A   Clear
8:35 AM 55.4 °F 41.0 °F 58% 30.09 in 10.0 mi NE 9.2 mph - N/A   Clear
8:55 AM 57.2 °F 41.0 °F 55% 30.10 in 10.0 mi NNE 11.5 mph 17.3 mph N/A   Clear
9:15 AM 59.0 °F 39.2 °F 48% 30.11 in 10.0 mi NE 15.0 mph 20.7 mph N/A   Clear
9:35 AM 59.0 °F 39.2 °F 48% 30.12 in 10.0 mi NE 15.0 mph - N/A   Clear
9:55 AM 62.6 °F 39.2 °F 42% 30.12 in 10.0 mi NE 21.9 mph 25.3 mph N/A   Clear
10:15 AM 64.4 °F 39.2 °F 40% 30.12 in 10.0 mi NE 19.6 mph 26.5 mph N/A   Clear
10:35 AM 66.2 °F 39.2 °F 37% 30.13 in 10.0 mi NE 20.7 mph 26.5 mph N/A   Clear
10:55 AM 66.2 °F 39.2 °F 37% 30.13 in 10.0 mi NE 17.3 mph 31.1 mph N/A   Clear
11:15 AM 68.0 °F 39.2 °F 35% 30.13 in 10.0 mi NNE 20.7 mph 26.5 mph N/A   Clear
11:35 AM 68.0 °F 39.2 °F 35% 30.13 in 10.0 mi NNE 19.6 mph 25.3 mph N/A   Clear
11:55 AM 68.0 °F 39.2 °F 35% 30.13 in 10.0 mi NE 19.6 mph 25.3 mph N/A   Clear
12:15 PM 69.8 °F 39.2 °F 33% 30.13 in 10.0 mi NE 19.6 mph 24.2 mph N/A   Clear
12:35 PM 71.6 °F 39.2 °F 31% 30.13 in 10.0 mi NE 17.3 mph 23.0 mph N/A   Clear
12:55 PM 71.6 °F 39.2 °F 31% 30.12 in 10.0 mi NE 17.3 mph 20.7 mph N/A   Clear
1:15 PM 71.6 °F 39.2 °F 31% 30.12 in 10.0 mi NE 11.5 mph - N/A   Clear
1:35 PM 73.4 °F 39.2 °F 29% 30.11 in 10.0 mi NNE 13.8 mph 19.6 mph N/A   Clear
1:55 PM 73.4 °F 39.2 °F 29% 30.10 in 10.0 mi NNE 11.5 mph 21.9 mph N/A   Clear
2:15 PM 73.4 °F 39.2 °F 29% 30.10 in 10.0 mi NE 15.0 mph 23.0 mph N/A   Clear
2:35 PM 73.4 °F 39.2 °F 29% 30.09 in 10.0 mi NE 12.7 mph 23.0 mph N/A   Clear
2:55 PM 75.2 °F 39.2 °F 27% 30.09 in 10.0 mi NE 15.0 mph 19.6 mph N/A   Clear
3:15 PM 75.2 °F 39.2 °F 27% 30.09 in 9.0 mi NE 16.1 mph 23.0 mph N/A   Clear
3:35 PM 75.2 °F 39.2 °F 27% 30.09 in 7.0 mi NNE 12.7 mph 16.1 mph N/A   Clear
3:55 PM 75.2 °F 39.2 °F 27% 30.09 in 9.0 mi ENE 11.5 mph - N/A   Clear
4:15 PM 75.2 °F 39.2 °F 27% 30.09 in 10.0 mi NE 12.7 mph - N/A   Clear
4:35 PM 75.2 °F 39.2 °F 27% 30.09 in 10.0 mi ENE 15.0 mph 19.6 mph N/A   Clear
4:55 PM 75.2 °F 37.4 °F 25% 30.08 in 10.0 mi NE 12.7 mph 21.9 mph N/A   Clear
5:15 PM 75.2 °F 37.4 °F 25% 30.08 in 10.0 mi ENE 12.7 mph 20.7 mph N/A   Clear
5:35 PM 73.4 °F 37.4 °F 27% 30.08 in 10.0 mi NE 15.0 mph 21.9 mph N/A   Clear
5:55 PM 73.4 °F 37.4 °F 27% 30.08 in 10.0 mi NE 13.8 mph 21.9 mph N/A   Clear
6:15 PM 71.6 °F 39.2 °F 31% 30.09 in 10.0 mi NE 11.5 mph 18.4 mph N/A   Clear
6:35 PM 69.8 °F 39.2 °F 33% 30.10 in 10.0 mi NE 8.1 mph - N/A   Clear
6:55 PM 66.2 °F 39.2 °F 37% 30.10 in 10.0 mi ENE 8.1 mph - N/A   Clear
7:15 PM 64.4 °F 39.2 °F 40% 30.11 in 10.0 mi NE 6.9 mph - N/A   Clear
7:35 PM 60.8 °F 39.2 °F 45% 30.12 in 10.0 mi NE 8.1 mph - N/A   Clear
7:55 PM 59.0 °F 41.0 °F 51% 30.13 in 5.0 mi NE 8.1 mph - N/A   Haze
8:15 PM 59.0 °F 41.0 °F 51% 30.14 in 5.0 mi NE 8.1 mph - N/A   Haze
8:35 PM 57.2 °F 41.0 °F 55% 30.15 in 9.0 mi NE 6.9 mph - N/A   Clear
8:55 PM 57.2 °F 41.0 °F 55% 30.15 in 10.0 mi NE 8.1 mph - N/A   Clear
9:15 PM 55.4 °F 41.0 °F 58% 30.16 in 10.0 mi ENE 8.1 mph - N/A   Clear
9:35 PM 55.4 °F 41.0 °F 58% 30.17 in 10.0 mi NE 8.1 mph - N/A   Clear
9:55 PM 53.6 °F 41.0 °F 62% 30.18 in 8.0 mi NE 8.1 mph - N/A   Clear
10:15 PM 53.6 °F 41.0 °F 62% 30.18 in 10.0 mi NE 8.1 mph - N/A   Clear
10:35 PM 53.6 °F 41.0 °F 62% 30.19 in 10.0 mi NE 8.1 mph - N/A   Clear
10:55 PM 53.6 °F 41.0 °F 62% 30.19 in 5.0 mi NE 6.9 mph - N/A   Haze
11:15 PM 53.6 °F 41.0 °F 62% 30.19 in 5.0 mi NNE 6.9 mph - N/A   Haze
11:35 PM 53.6 °F 41.0 °F 62% 30.19 in 5.0 mi NE 8.1 mph - N/A   Haze
11:55 PM 53.6 °F 41.0 °F 62% 30.19 in 5.0 mi NNE 8.1 mph - N/A   Haze